Regional Weather Roundup
Issued by NWS

Home | Current Version | Previous Version | Text Only | Print | Product List | Glossary Off
Versions: 1 2 3 4 5 6 7 8 9 10 11 12 13 14 15 16 17 18 19 20 21 22 23 24 25 26 27 28 29 30 31 32 33 34 35 36 37 38 39 40 41 42 43 44 45 46 47 48 49 50

896
ASUS43 KMPX 301101
RWRMN
WEATHER ROUNDUP FOR MINNESOTA
NATIONAL WEATHER SERVICE TWIN CITIES/CHANHASSEN MN
600 AM CDT SAT APR 30 2016


NOTE: "FAIR" INDICATES FEW OR NO CLOUDS BELOW 12,000 FEET WITH NO
SIGNIFICANT WEATHER AND/OR OBSTRUCTIONS TO VISIBILITY. N/A MEANS
CURRENT SKY AND/OR WEATHER CONDITIONS ARE NOT AVAILABLE.

MNZ060>063-068>070-301200-
   Twin Cities Metro

CITY           SKY/WX    TMP DP  RH WIND       PRES   REMARKS
TWIN CITIES    CLOUDY    42  31  64 NE10      30.08F
ST PAUL        CLEAR     42  32  67 NE14      30.10F
CRYSTAL        CLOUDY    40  31  70 NE6       30.09F
BLAINE         CLOUDY    39  34  81 NE7       30.10F
EDEN PRAIRIE   PTCLDY    43  31  62 NE10      30.06F
SOUTH ST PAUL  CLOUDY    42  32  67 NE6       30.09S
LAKE ELMO      FAIR      41  32  70 NE10      30.10F
$$
MNZ001>005-007-008-013>017-022>024-027-028-301200-
   Northwest Minnesota

CITY           SKY/WX    TMP DP  RH WIND       PRES   REMARKS
BEMIDJI        CLEAR     34  30  86 NE7       30.23R WCI  28
HALLOCK        CLEAR     37  30  75 E12       30.28R
ROSEAU         CLEAR     32  28  86 CALM      30.30R
WARROAD        CLEAR     34  30  86 NE6       30.31R WCI  29
THIEF RVR FALL CLEAR     37  30  75 NE7       30.26S
CROOKSTON      CLEAR     39  32  75 E8        30.25R
FOSSTON        CLEAR     36  28  75 NE3       30.23S
DETROIT LAKES  CLEAR     39  32  75 E5        30.20R
MOORHEAD       CLEAR     39  30  70 E7        30.20R
PARK RAPIDS    CLEAR     38  29  70 NE8       30.20R
MAHNOMEN       FAIR      36  29  78 NE5       30.20R
$$
MNZ006-009>011-018-025>026-301200-
   North Central Minnesota

CITY           SKY/WX    TMP DP  RH WIND       PRES   REMARKS
BAUDETTE       CLEAR     34  29  82 NE3       30.30R
FLAG ISLAND    CLEAR     39  34  81 N3        30.31R
INTL FALLS     CLEAR     28  26  92 CALM      30.30R
WASKISH        CLEAR     34  32  93 NE6       30.27S WCI  29
BIG FORK       CLEAR     36  30  80 NE6       30.25F
LONGVILLE      CLEAR     36  30  80 NE5       30.21R
GRAND RAPIDS   CLEAR     36  27  69 CALM      30.24R
CRANE LAKE     CLEAR     25  23  93 CALM      30.31S
ORR            PTCLDY    30  27  86 CALM      30.25S
COOK           CLEAR     28  27  93 CALM      30.26F
WALKER         FAIR      38  32  77 NE3       30.22R
$$
MNZ012-019>021-037-301200-
   Northeast Minnesota

CITY           SKY/WX    TMP DP  RH WIND       PRES   REMARKS
DULUTH         PTCLDY    36  29  75 E14       30.22S
ELY            PTCLDY    36  32  87 CALM      30.27S
HIBBING        CLEAR     31  28  89 NE5       30.24R WCI  26
EVELETH        CLEAR     34  30  86 NE6       30.25S WCI  29
DULUTH HARBOR  CLEAR     39  36  87 NE17      30.25S
TWO HARBORS    CLEAR     39  30  70 NE7       30.24R
SILVER BAY     CLEAR     39  30  70 NE8       30.24R
GRAND MARAIS     N/A     42  29  59 NE6       30.28S
G MARAIS ARPRT PTCLDY    34  25  69 N7        30.26S WCI  28
$$
MNZ029>031-032-039>041-046>048-054>057-064-301200-
   West Central Minnesota

CITY           SKY/WX    TMP DP  RH WIND       PRES   REMARKS
FERGUS FALLS   CLEAR     43  30  61 E7        30.15R
WHEATON        PTCLDY    41  36  81 NE9       30.15R
MORRIS         CLEAR     41  32  70 E16       30.10S
ALEXANDRIA     CLEAR     38  30  73 NE10      30.14S
ELBOW LAKE     FAIR      41  32  70 NE12      30.14S
WADENA         CLEAR     36  28  75 NE8       30.17S
GLENWOOD       PTCLDY    36  30  80 NE13      30.12S
APPLETON       PTCLDY    43  32  65 NE10      30.08F
BENSON         PTCLDY    39  30  70 E10G16    30.09F
ORTONVILLE     PTCLDY    41  32  70 E12G20    30.08F
MADISON        CLOUDY    39  36  87 NE10      30.06F
WILLMAR        FAIR      43  32  65 NE14G20   30.08F
$$
MNZ033>034-036-042>043-049>051-058-059-301200-
   Central Minnesota

CITY           SKY/WX    TMP DP  RH WIND       PRES   REMARKS
ST CLOUD       CLOUDY    38  29  70 NE9       30.12F
SAUK CENTRE    FAIR      38  31  77 NE10      30.13S
PAYNESVILLE    MOCLDY    38  31  76 NE9       30.10F
AITKIN         CLEAR     37  28  70 NE8       30.18S
PINE RIVER     CLEAR     37  30  75 NE6       30.22S
BRAINERD       CLEAR     37  29  72 NE12      30.18S
STAPLES        CLEAR     36  28  75 NE6       30.17S
LONG PRAIRIE   FAIR      36  30  80 NE9       30.14S
LITTLE FALLS   CLEAR     37  30  75 NE6       30.16R
LITCHFIELD     PTCLDY    39  34  81 NE8       30.08F
BUFFALO        PTCLDY    39  31  73 NE15      30.10F
MAPLE LAKE     PTCLDY    39  33  76 NE7       30.11F
HUTCHINSON     CLEAR     41  34  77 NE14      30.07F
$$
MNZ037-044-045-052-053-301200-
   East Central Minnesota

CITY           SKY/WX    TMP DP  RH WIND       PRES   REMARKS
PRINCETON      CLOUDY    37  30  75 NE9G16    30.13F
MORA           CLOUDY    34  28  80 NE5       30.17S WCI  30
CAMBRIDGE      MOCLDY    39  28  65 NE8       30.12F
RUSH CITY      CLOUDY    35  30  82 NE9       30.16R WCI  28
MOOSE LAKE     CLEAR     34  30  86 NE5       30.18S WCI  30
HINCKLEY       FAIR      36  32  87 NE7       30.17S
CLOQUET        CLEAR     37  28  70 NE14G21   30.20F
MCGREGOR       CLEAR     36  30  80 NE7       30.20S
$$
MNZ071>073-080-081-089-090-097-098-301200-
   Southwest Minnesota

CITY           SKY/WX    TMP DP  RH WIND       PRES   REMARKS
MONTEVIDEO     CLOUDY    39  36  87 E13       30.07F
GRANITE FALLS  MOCLDY    42  37  81 NE13      30.06F
CANBY          CLOUDY    41  39  94 NE8       30.05F
MARSHALL       CLOUDY    42  39  89 NE14      30.02F
REDWOOD FALLS  CLOUDY    42  34  73 E7        30.04F
OLIVIA         MOCLDY    39  32  75 NE10      30.05F
PIPESTONE      MOCLDY    43  39  87 NE14G20   29.95F
WINDOM         CLOUDY    43  39  87 NE12      29.99F
WORTHINGTON    MOCLDY    42  38  85 NE20      29.95F
JACKSON        CLOUDY    43  36  75 NE17      29.97F
TRACY          CLOUDY    41  39  95 NE7       30.02S
SLAYTON        CLOUDY    41  40  96 NE14      29.99F
$$
MNZ065>067-074>077-082>085-091>093-301200-
   South Central Minnesota

CITY           SKY/WX    TMP DP  RH WIND       PRES   REMARKS
MANKATO        CLOUDY    45  37  76 NE14      30.03S
NEW ULM        CLOUDY    43  36  75 NE10G17   30.02F
ST JAMES       CLOUDY    39  36  87 NE10      30.02S
FAIRMONT       CLOUDY    45  30  57 NE15      29.98F
GLENCOE        PTCLDY    41  36  82 NE7       30.06F
FARIBAULT      CLOUDY    41  37  87 NE5       30.05S
OWATONNA       CLOUDY    43  37  81 NE9       30.04S
WASECA         CLOUDY    43  36  75 NE15      30.04S
ALBERT LEA     CLOUDY    43  39  87 NE12      30.00F
$$
MNZ078>079-086>088-094>096-301200-
   Southeast Minnesota

CITY           SKY/WX    TMP DP  RH WIND       PRES   REMARKS
ROCHESTER      CLOUDY    41  38  89 E12       30.04F
RED WING       PTCLDY    43  34  70 E9        30.07S
STANTON        PTCLDY    41  35  80 E8        30.06S
DODGE CENTER   CLOUDY    41  37  87 E14       30.04R
WINONA         CLOUDY    41  37  87 CALM      30.09S
AUSTIN         CLOUDY    43  37  81 E12       30.00F
PRESTON        CLOUDY    40  36  84 NE8       30.04F
$$
ABBREVIATIONS USED IN REMARKS
   TC - TEMPERATURES IN CELSIUS
  WCI - WIND CHILL INDEX
   HX - HEAT INDEX
  VSB - VISIBILITY
$$




USA.gov is the U.S. government's official web portal to all federal, state and local government web resources and services.